Location: Bailleul
(50.3375°N, 2.8513°E)
Time: 20:11:14
(UTC+00:00)

BREEZE-M DEB (TANK) - Pass Details

Date: 19 April 2021
Orbit: 281 x 16789 km, 49.5° (Epoch: 17 May)

Event Time Altitude Azimuth Distance (km) Brightness Sun altitude
Rises 19:29:10 0° 220° (SW) 4,676 7.2 -6.6°
Reaches altitude 10° 19:34:09 10° 205° (SSW) 2,338 5.5 -7.3°
Maximum altitude 19:37:14 18° 161° (SSE) 1,223 3.7 -7.8°
Enters shadow 19:38:53 11° 117° (ESE) 1,266 3.5 -8.0°
